Date String (YYYY-MM-DD hh:mm:ss) UTC,Instrument flags,Ambient pressure (hPa),Sample flow (lpm),Bypass flow (lpm),Sample temperature (°C),Ambient temperature (°C),ASC tube jacket temperature (°C),LED temperature (°C),Box temperature (°C),Sample RH (%),Span deviation,Mass concentration (μg/m³),Mass concentration (μg/m³),Mass concentration (μg/m³)
DateTimeUTC,F1_M11,P_M11,Q1_M11,Q2_M11,T1_M11,T2_M11,T3_M11,T4_M11,T5_M11,U1_M11,ZSPAN_M11,X0_M11,X2_M11,X1_M11
2021-12-19 07:00:00,,0825.5,5.00,0.00,22.7,21.9,00.0,31.8,24.3,07.4,0000.7,0017.45,0009.32,0007.90
2021-12-19 07:01:00,,0825.5,5.01,0.00,22.7,21.9,00.0,31.7,24.3,07.4,0000.0,0017.04,0009.34,0007.89
2021-12-19 07:02:00,,0825.5,5.00,0.00,22.6,21.8,00.0,31.7,24.2,07.5,0000.0,0017.70,0009.32,0007.87
2021-12-19 07:03:00,,0825.5,5.00,0.00,22.6,21.8,00.0,31.7,24.2,07.5,0000.0,0017.82,0009.25,0007.81
2021-12-19 07:04:00,,0825.4,4.99,0.00,22.6,21.7,00.0,31.7,24.2,07.5,0000.0,0017.74,0009.15,0007.76
2021-12-19 07:05:00,,0825.4,5.00,0.00,22.6,21.7,00.0,31.7,24.2,07.5,0000.0,0017.72,0009.14,0007.70
2021-12-19 07:06:00,,0825.4,5.01,0.00,22.6,21.7,00.0,31.7,24.2,07.5,0000.0,0018.02,0009.08,0007.64
2021-12-19 07:07:00,,0825.4,5.01,0.00,22.6,21.7,00.0,31.6,24.2,07.5,0000.0,0018.28,0008.98,0007.58
2021-12-19 07:08:00,,0825.4,4.98,0.00,22.5,21.7,00.0,31.6,24.2,07.5,0000.0,0019.27,0008.95,0007.53
2021-12-19 07:09:00,,0825.3,5.01,0.00,22.5,21.7,00.0,31.6,24.2,07.5,0000.0,0019.15,0008.88,0007.47
2021-12-19 07:10:00,,0825.3,5.00,0.00,22.5,21.6,00.0,31.6,24.2,07.5,0000.0,0019.48,0008.83,0007.45
2021-12-19 07:11:00,,0825.3,4.99,0.00,22.5,21.8,00.0,31.6,24.2,07.6,0000.0,0021.30,0008.79,0007.45
2021-12-19 07:12:00,,0825.3,5.00,0.00,22.6,22.4,00.0,31.6,24.4,07.6,0000.0,0022.17,0008.79,0007.45
2021-12-19 07:13:00,,0825.4,5.00,0.00,22.7,23.1,00.0,31.6,24.6,07.5,0000.0,0022.04,0008.82,0007.44
2021-12-19 07:14:00,,0825.3,5.00,0.00,22.8,23.3,00.0,31.7,24.7,07.4,0003.7,0022.45,0008.79,0007.43
2021-12-19 07:15:00,,0825.3,5.01,0.00,22.9,23.1,00.0,31.7,24.7,07.4,0003.3,0023.15,0008.76,0007.42
2021-12-19 07:16:00,,0825.3,5.00,0.00,22.9,22.9,00.0,31.7,24.7,07.4,0001.4,0023.01,0008.68,0007.39
2021-12-19 07:17:00,,0825.3,4.99,0.00,22.8,22.7,00.0,31.7,24.6,07.4,0003.4,0023.02,0008.63,0007.36
2021-12-19 07:18:00,,0825.2,5.01,0.00,22.8,22.5,00.0,31.7,24.5,07.4,0004.0,0023.77,0008.65,0007.33
2021-12-19 07:19:00,,0825.2,4.99,0.00,22.8,22.4,00.0,31.7,24.5,07.4,0003.5,0024.90,0008.62,0007.28
2021-12-19 07:20:00,,0825.2,5.01,0.00,22.8,22.3,00.0,31.7,24.5,07.4,0003.7,0025.52,0008.62,0007.28
2021-12-19 07:21:00,,0825.2,4.99,0.00,22.8,22.2,00.0,31.7,24.4,07.5,0004.9,0024.50,0008.58,0007.24
2021-12-19 07:22:00,,0825.2,5.02,0.00,22.7,22.1,00.0,31.7,24.4,07.5,0005.0,0022.60,0008.55,0007.21
2021-12-19 07:23:00,,0825.2,4.98,0.00,22.7,22.0,00.0,31.7,24.4,07.5,0004.8,0021.53,0008.45,0007.16
2021-12-19 07:24:00,,0825.2,5.01,0.00,22.7,22.0,00.0,31.7,24.3,07.6,0004.5,0022.03,0008.39,0007.16
2021-12-19 07:25:00,,0825.2,4.99,0.00,22.7,21.9,00.0,31.7,24.3,07.5,0000.0,0023.00,0008.47,0007.17
2021-12-19 07:26:00,,0825.2,5.01,0.00,22.6,21.9,00.0,31.7,24.3,07.5,0000.0,0023.88,0008.51,0007.14
2021-12-19 07:27:00,,0825.2,5.01,0.00,22.6,21.8,00.0,31.7,24.2,07.4,0000.0,0024.75,0008.49,0007.10
2021-12-19 07:28:00,,0825.1,4.99,0.00,22.6,21.8,00.0,31.7,24.2,07.2,0000.0,0024.76,0008.44,0007.03
2021-12-19 07:29:00,,0825.1,4.99,0.00,22.6,21.8,00.0,31.6,24.3,07.2,0000.0,0023.78,0008.41,0006.98
2021-12-19 07:30:00,,0825.1,5.00,0.00,22.6,21.7,00.0,31.6,24.2,07.4,0000.0,0021.85,0008.36,0006.98
2021-12-19 07:31:00,,0825.1,5.01,0.00,22.6,21.7,00.0,31.6,24.2,07.2,0000.0,0020.60,0008.33,0006.91
2021-12-19 07:32:00,,0825.0,4.99,0.00,22.5,21.7,00.0,31.6,24.2,07.4,0000.0,0020.54,0008.30,0006.86
2021-12-19 07:33:00,,0825.1,5.00,0.00,22.5,21.7,00.0,31.6,24.1,07.5,0000.0,0020.48,0008.25,0006.84
2021-12-19 07:34:00,,0825.1,5.00,0.00,22.5,21.8,00.0,31.6,24.1,07.5,0000.0,0020.97,0008.22,0006.81
2021-12-19 07:35:00,,0825.1,5.00,0.00,22.6,22.4,00.0,31.6,24.4,07.5,0000.0,0020.74,0008.22,0006.81
2021-12-19 07:36:00,,0825.1,5.00,0.00,22.7,23.1,00.0,31.6,24.6,07.3,0000.0,0019.79,0008.04,0006.72
2021-12-19 07:37:00,,0825.0,5.00,0.00,22.8,23.3,00.0,31.7,24.8,07.4,0000.0,0018.48,0007.96,0006.72
2021-12-19 07:38:00,,0824.9,5.00,0.00,22.8,23.0,00.0,31.7,24.7,07.4,0000.0,0017.85,0008.01,0006.76
2021-12-19 07:39:00,,0824.9,5.00,0.00,22.8,22.8,00.0,31.7,24.6,07.2,0000.0,0017.06,0008.05,0006.78
2021-12-19 07:40:00,,0825.0,4.99,0.00,22.8,22.7,00.0,31.7,24.6,06.9,0000.0,0017.19,0007.99,0006.74
2021-12-19 07:41:00,,0825.0,5.01,0.00,22.8,22.5,00.0,31.7,24.5,06.7,0000.0,0017.11,0007.86,0006.64
2021-12-19 07:42:00,,0825.1,4.99,0.00,22.8,22.4,00.0,31.7,24.5,07.0,0000.0,0018.05,0007.83,0006.60
2021-12-19 07:43:00,,0825.1,5.01,0.00,22.8,22.2,00.0,31.7,24.5,07.3,0000.0,0018.42,0007.89,0006.66
2021-12-19 07:44:00,,0825.1,5.00,0.00,22.8,22.2,00.0,31.7,24.5,07.2,0000.0,0018.46,0007.92,0006.65
2021-12-19 07:45:00,,0825.0,4.99,0.00,22.7,22.1,00.0,31.7,24.4,07.2,0000.0,0017.81,0007.94,0006.67
2021-12-19 07:46:00,,0824.9,5.01,0.00,22.7,22.0,00.0,31.7,24.4,07.3,0000.0,0018.55,0007.98,0006.65
2021-12-19 07:47:00,,0824.9,5.01,0.00,22.7,21.9,00.0,31.7,24.3,07.0,0000.0,0018.09,0008.04,0006.63
2021-12-19 07:48:00,,0824.9,5.00,0.00,22.7,21.9,00.0,31.7,24.3,07.1,0000.0,0017.80,0008.03,0006.57
2021-12-19 07:49:00,,0824.9,4.99,0.00,22.7,21.9,00.0,31.7,24.3,07.0,0000.0,0017.92,0007.94,0006.51
2021-12-19 07:50:00,,0825.0,5.02,0.00,22.7,21.8,00.0,31.7,24.3,07.0,0000.0,0017.79,0007.88,0006.49
2021-12-19 07:51:00,,0825.0,4.98,0.00,22.6,21.8,00.0,31.7,24.3,07.1,0000.0,0018.40,0007.90,0006.53
2021-12-19 07:52:00,,0825.0,5.01,0.00,22.6,21.8,00.0,31.6,24.3,07.1,0000.0,0018.72,0007.96,0006.59
2021-12-19 07:53:00,,0824.9,5.00,0.00,22.6,21.8,00.0,31.6,24.3,07.1,0000.0,0018.09,0007.95,0006.62
2021-12-19 07:54:00,,0824.9,5.00,0.00,22.6,21.7,00.0,31.6,24.3,07.1,0000.0,0018.22,0007.88,0006.55
2021-12-19 07:55:00,,0824.9,5.01,0.00,22.6,21.7,00.0,31.6,24.3,07.1,0000.0,0018.57,0007.84,0006.54
2021-12-19 07:56:00,,0825.0,5.01,0.00,22.6,21.7,00.0,31.6,24.2,07.1,0000.0,0018.95,0007.81,0006.48
2021-12-19 07:57:00,,0824.9,5.02,0.00,22.6,21.9,00.0,31.6,24.2,07.1,0000.0,0018.84,0007.71,0006.43
2021-12-19 07:58:00,,0825.0,4.99,0.00,22.6,22.5,00.0,31.6,24.4,07.1,0000.0,0018.89,0007.70,0006.45
2021-12-19 07:59:00,,0825.0,5.01,0.00,22.8,23.2,00.0,31.7,24.7,07.1,0000.0,0018.66,0007.69,0006.47
